STARLINK-11310 [DTC]

Last updated on Fri Oct 04 2024 00:02:04 GMT+0000 (Coordinated Universal Time)

1 61212U 24171N 24277.58334491 -.00488798 00000+0 -20435-2 0 9997 2 61212 53.1628 231.3470 0000742 121.1106 54.7433 15.86058152 3284
UTC large
Height (km)
Speed (km/s)
/
Latitude / Longitude
Inclination (degrees)
Orbital Period (minutes)
Azimuth
Elevation
Range (km)
Doppler Factor

Next 0 passes for location: London (51.5072 / 0.1276)

Sorry there are no passes over London.